Regional Weather Roundup
Issued by NWS Goodland, KS

Home | Current Version | Previous Version | Graphics & Text | Print | Product List | Glossary On
Versions: 1 2 3 4 5 6 7 8 9 10 11 12 13 14 15 16 17 18 19 20 21 22 23 24 25 26 27 28 29 30 31 32 33 34 35 36 37 38 39 40 41 42 43 44 45 46 47 48 49 50
000
ASUS43 KGLD 191959
RWRGLD

GOODLAND FORECAST AREA HOURLY WEATHER ROUNDUP
NATIONAL WEATHER SERVICE GOODLAND KS
200 PM MDT SAT AUG 19 2017

...OFFICIAL OBSERVATIONS...

CITY           SKY/WX    TMP DP  RH WIND       PRES   REMARKS
GOODLAND KS    SUNNY     91  60  35 S20G26    29.94F
HILL CITY KS   SUNNY    100  58  24 S14G22    29.91F
IMPERIAL NEB   SUNNY     93  62  35 S14G24    29.91F
MCCOOK NEB     SUNNY     95  65  37 S20G30    29.88F
AKRON CO       SUNNY     92  37  14 W7        30.01F
BURLINGTON CO  SUNNY     91  61  36 SW14      30.00F
LIMON CO       SUNNY     90  36  14 W12G18    30.07F
$$

...UNOFFICIAL OBSERVATIONS...

CITY           SKY/WX    TMP DP  RH WIND       PRES   REMARKS
LENORA KS        N/A     94  32  11 S13         N/A
NORTON KS      SUNNY     99  48  18 S16G24    29.90F
SHARON SPRINGS   N/A     96  60  30 SW18G26     N/A
TRENTON NEB      N/A     94  32  11 SW12        N/A
KIT CARSON CO    N/A     89  58  34 MISG        N/A
YUMA CO        FAIR      90  54  29 SE6       29.96F
$$




USA.gov is the U.S. government's official web portal to all federal, state and local government web resources and services.